Location: Barrio Valldoreix
(41.4596°N, 2.0439°E)
Time: 06:50:08
(UTC+00:00)

Daily predictions for brighter satellites

Satellite Brightness Start Highest point End
(mag) Time Altitude Azimuth Time Altitude Azimuth Time Altitude Azimuth
NOAA 6 4.0 16:48:56 10° SSE 16:54:05 81° ENE 16:59:15 10° NNW
USA 215 3.5 16:49:19 10° NE 16:55:46 58° SE 17:02:09 10° SSW
Cosmos 1743 Rocket 3.6 16:52:26 10° N 16:56:54 67° E 17:01:18 10° SSE
PAYLOAD B 4.3 16:51:24 10° SSE 16:56:59 79° ENE 17:02:35 10° NNW
COSMO-SKYMED 1 4.2 16:54:35 10° NE 16:57:21 16° E 17:00:06 10° SE
PSLV R/B 4.2 16:53:19 10° S 16:57:25 75° WSW 17:01:32 10° NNW
ATLAS 5 CENTAUR R/B 3.7 16:52:10 10° NW 16:57:52 48° WSW 17:04:21 10° S
Cosmos 2298 Rocket 4.1 16:53:13 10° NNW 16:58:30 62° ENE 17:03:45 10° SSE
Cosmos 2150 Rocket 4.0 16:54:47 10° NNW 16:59:54 58° ENE 17:04:57 10° SSE
AQUARIUS 4.4 16:55:58 10° SE 17:00:15 46° ENE 17:04:34 10° N
Cosmos 1818 3.8 16:55:39 10° NNW 17:00:58 49° NE 17:06:13 10° SE
Cosmos 1606 3.7 16:59:30 10° SSE 17:02:51 28° E 17:06:13 10° NNE
CZ-4B DEB 4.5 16:57:36 10° S 17:03:06 77° WSW 17:08:36 10° NNW
Sich 1 3.8 17:02:04 10° NNE 17:05:57 30° ENE 17:09:48 10° SE
BREEZE-M TANK 2.9 16:59:08 10° WNW 17:06:00 85° SSW 17:09:17 10° ESE
Cosmos 1842 Rocket 4.4 17:02:48 10° SSW 17:07:02 53° W 17:11:17 10° N
Okean O Rocket 1.7 17:03:01 10° SSE 17:07:15 55° ENE 17:11:32 10° N
Cosmos 2333 Rocket 3.6 17:02:05 10° SW 17:07:21 37° WNW 17:12:37 10° N
Radarsat Rocket 4.1 17:03:54 10° SSE 17:09:48 90° WNW 17:16:18 10° NNW
Nadezhda 1 Rocket 4.0 17:03:54 10° S 17:10:12 81° E 17:16:37 10° N
ISS -3.3 17:07:04 10° WSW 17:10:23 58° NNW 17:13:33 11° NE
COSMOS 2428 3.8 17:07:21 10° SW 17:12:48 44° WNW 17:18:16 10° NNE
Cosmos 1125 Rocket 3.6 17:09:35 10° N 17:14:42 55° ENE 17:19:48 10° SE
Cosmos 1356 4.4 17:12:44 10° NNE 17:15:38 25° ENE 17:18:31 10° SE
Cosmos 1805 Rocket 3.7 17:12:36 10° N 17:16:59 54° E 17:21:19 10° SSE
Cosmos 1151 Rocket 4.2 17:16:51 10° SE 17:20:08 22° E 17:23:24 10° NE
CZ-4B R/B 1.6 17:18:00 10° NNE 17:20:56 41° E 17:23:53 10° S
Cosmos 2278 Rocket 2.2 17:16:10 10° NNW 17:21:54 87° ENE 17:27:34 10° SSE
Cosmos 1666 Rocket 4.3 17:19:14 10° NNE 17:23:07 29° ENE 17:26:59 10° SE
Cosmos 2154 Rocket 4.1 17:20:04 10° N 17:26:26 86° W 17:32:47 10° S
Lacrosse 5 rocket 2.5 17:23:53 10° S 17:26:41 21° SE 17:28:08 17° E
CRYOSAT 2 4.4 17:22:00 10° N 17:26:56 87° E 17:31:49 10° S
Cosmos 1862 3.8 17:23:01 10° NNW 17:27:02 64° W 17:30:59 10° S
USA 267 3.8 17:21:44 11° E 17:27:29 39° NNE 17:33:26 10° NW
FALCON 9 R/B 2.7 17:30:44 10° SSW 17:31:59 14° SSE 17:33:17 10° SE
NOSS 0 Rocket 4.4 17:26:29 10° SW 17:32:39 62° WNW 17:38:50 10° NNE
NOAA 12 4.3 17:28:20 10° S 17:33:39 76° WSW 17:39:00 10° NNW
CZ-2D R/B 4.1 17:31:05 10° SE 17:34:17 27° ENE 17:37:32 10° NNE
ERS-2 2.1 17:30:42 10° NNE 17:34:20 60° ESE 17:37:57 10° S
Cosmos 2341 Rocket 4.0 17:29:11 10° N 17:35:24 60° E 17:41:38 10° SSE
SL-24 R/B - RUBIN 2 4.2 17:29:43 10° NNW 17:36:00 84° NE 17:41:31 10° SE
CZ-4 R/B 2.7 17:38:23 20° NE 17:38:23 20° NE 17:40:39 10° NNE
Cosmos 2219 Rocket 4.2 17:33:59 10° WSW 17:38:32 25° NW 17:43:07 10° N
TELKOM 3 4.0 17:38:01 10° W 17:40:40 40° NNW 17:41:32 28° NNE
SMAP 3.8 17:36:26 10° S 17:40:59 57° W 17:45:36 10° NNW
CZ-3B R/B 2.9 17:39:02 10° S 17:41:50 18° SE 17:42:22 17° SE
CZ-4B R/B 3.8 17:36:55 10° S 17:42:12 59° WSW 17:47:28 10° NNW
H-2A R/B 3.6 17:38:47 10° N 17:42:36 35° WNW 17:46:27 10° SW
BREEZE-M DEB (TANK) 2.2 17:39:55 10° WSW 17:42:36 49° NNW 17:43:13 33° NNE
SKYMED 2 3.7 17:41:27 10° NNE 17:45:43 54° E 17:49:58 10° S
USA 81 4.2 17:41:54 10° N 17:47:01 49° E 17:52:06 10° SSE
Cosmos 2237 Rocket 2.8 17:42:06 10° SW 17:47:37 58° WNW 17:53:12 10° NNE
CREW DRAGON DEMO-1 DEB 4.4 17:45:31 10° NNW 17:47:43 21° NNE 17:47:43 21° NNE
NOAA 11 4.2 17:43:32 10° SSE 17:48:57 85° WSW 17:54:25 10° NNW
GENESIS II 4.1 17:45:52 10° NNW 17:49:49 84° ENE 17:53:41 10° SE
Cosmos 1939 Rocket 2.7 17:46:05 10° SSE 17:49:53 60° ENE 17:53:43 10° N
Cosmos 2285 Rocket 4.3 17:44:04 10° N 17:50:07 41° ENE 17:56:05 10° SE
FengYun 1-2 T 4.4 17:45:34 10° S 17:51:07 78° WSW 17:56:41 10° NNW
H-2A R/B 3.0 17:52:26 25° ENE 17:53:06 26° ENE 17:57:23 10° NNE
Cosmos 1633 Rocket 3.1 17:49:38 10° N 17:53:55 51° E 17:58:09 10° SSE
Cosmos 773 Rocket 4.4 17:51:54 10° S 17:56:48 42° ESE 17:59:15 26° NE
SL-8 Rocket 3.9 17:53:22 10° N 17:59:35 70° E 18:05:50 10° SSE
USA 281 3.3 17:54:43 10° SE 18:01:04 55° ENE 18:07:26 10° NNW
Cosmos 2369 Rocket 3.6 17:59:00 10° N 18:02:10 20° NE 18:02:10 20° NE
Cosmos 783 Rocket 4.4 17:58:01 10° S 18:03:17 70° ESE 18:07:10 19° NNE
Cosmos 2181 Rocket 4.0 17:56:56 10° S 18:03:21 79° E 18:09:46 10° N
MOS 1 Rocket 3.9 18:03:47 20° NE 18:07:11 44° E 18:12:21 10° S
Abrixas rocket 3.2 18:05:11 10° WNW 18:07:45 35° SW 18:08:24 30° S
Cosmos 1959 Rocket 4.4 18:02:19 10° N 18:08:41 68° E 18:15:00 10° SSE
YAOGAN 1 3.0 18:21:23 44° NNE 18:21:23 44° NNE 18:24:38 10° N
Cosmos 1689 Rocket 3.2 18:25:21 42° WSW 18:25:21 42° WSW 18:27:34 10° SSW
Cosmos 1933 4.2 18:22:13 10° SSW 18:26:07 49° W 18:29:42 12° N
SL-08 R/B 4.4 18:22:14 10° N 18:28:18 58° E 18:34:18 10° SSE
Cosmos 2297 3.6 18:23:24 10° NNW 18:29:07 82° ENE 18:34:09 14° SSE
Cosmos 1943 Rocket 2.3 18:26:42 10° NNW 18:31:41 49° NE 18:31:41 49° NE
Okean-O 2.5 18:27:51 10° SSE 18:32:16 89° W 18:36:44 10° NNW
Cosmos 44 3.4 18:27:00 10° NNW 18:32:17 62° NE 18:32:39 61° ENE
Meteor 1-14 Rocket 4.3 18:26:50 10° N 18:32:43 63° ENE 18:38:38 10° SSE
NOAA 15 4.4 18:27:56 10° SSE 18:33:14 79° ENE 18:38:32 10° N
COSMO-SKYMED 1 3.7 18:29:35 10° N 18:33:43 44° WNW 18:37:49 10° SW
CZ-2C R/B 2.9 18:29:11 10° SSE 18:34:25 89° ENE 18:39:24 10° NNW
Cosmos 1515 Rocket 3.9 18:30:39 10° S 18:34:01 52° SSE 18:34:01 52° SSE
Cosmos 1867 4.3 18:29:54 10° SW 18:35:09 50° NW 18:37:58 26° N
SL-16 R/B 2.5 18:29:51 10° SSW 18:35:28 66° WNW 18:38:47 25° NNE
USA 215 3.9 18:35:13 26° NNE 18:38:39 47° NNW 18:44:51 10° WSW
SL-23 DEB 4.2 18:37:17 10° SW 18:41:07 81° SE 18:41:12 81° ESE
Helios 1A Rocket 3.2 18:39:41 10° S 18:43:48 64° W 18:47:42 10° NNW
Cosmos 1782 3.5 18:40:13 10° SSW 18:43:16 49° SW 18:43:16 49° SW
Cosmos 1538 Rocket 4.1 18:39:19 10° S 18:43:58 61° SE 18:43:58 61° SE
Cosmos 2218 Rocket 4.4 18:39:18 10° NNW 18:45:21 62° W 18:51:23 10° S
ISS -1.0 18:45:22 10° WNW 18:46:31 15° NW 18:46:31 15° NW
Lacrosse 5 rocket 3.4 19:02:09 10° WSW 19:03:47 23° W 19:03:47 23° W
USA 267 3.2 19:09:07 64° SSE 19:10:10 77° SW 19:16:43 10° NW
CZ-4 R/B 3.7 19:14:25 19° NW 19:14:25 19° NW 19:15:58 10° NW
ATLAS CENTAUR R/B 3.9 19:07:26 10° NW 19:25:36 78° SW 19:27:28 59° SSE
H-2A R/B 3.3 19:33:04 39° WNW 19:33:04 39° WNW 19:37:15 10° NNW
Cosmos 2369 Rocket 4.2 19:42:08 10° NNW 19:43:59 21° NNW 19:43:59 21° NNW
